Regional Weather Roundup
Issued by NWS

Home | Current Version | Previous Version | Graphics & Text | Print | Product List | Glossary On
Versions: 1 2 3 4 5 6 7 8 9 10 11 12 13 14 15 16 17 18 19 20 21 22 23 24 25 26 27 28 29 30 31 32 33 34 35 36 37 38 39 40 41 42 43 44 45 46 47 48 49 50
000
ASUS43 KIND 011259
RWRIN

WEATHER ROUNDUP FOR INDIANA
NATIONAL WEATHER SERVICE INDIANAPOLIS IN
900 AM EDT TUE SEP 01 2015

NOTE: "FAIR" INDICATES FEW OR NO CLOUDS BELOW 12,000 FEET WITH NO
SIGNIFICANT WEATHER AND/OR OBSTRUCTIONS TO VISIBILITY.

* - STATION DOES NOT REPORT WEATHER SUCH AS PRECIPITATION OR FOG.

+ - STATION NOT QUALITY CONTROLLED BY THE NATIONAL WEATHER SERVICE.
    USE DATA WITH CAUTION...ESPECIALLY DEWPOINT AND RELATIVE
    HUMIDITY OBSERVATIONS.

INZ001>003-010>013-019-020-011400-
NORTHWEST INDIANA

CITY           SKY/WX    TMP DP  RH WIND       PRES   REMARKS
GARY /AIRPORT/ MOSUNNY   73  70  88 SW7       30.08R

$$

LMZ046-743>745-011400-
SOUTHERN LAKE MICHIGAN

STATION/POSITION TIME  TEMP    WIND        PRES    WAVE
                       AIR SEA DIR/SP/G            HT
                 (UTC) (F)     (DEG/KT/KT) (MB)    (FT)
BURNS HARBOR     1200   73     180/  7/ 12 1018.6R
MICHIGAN CITY    1200   72     140/  9/ 10   N/A
5NW MICH CITY    1200   72 72  180/  8/ 10   N/A     1

$$

INZ004-005-014>016-021>024-011400-
NORTH CENTRAL INDIANA

CITY           SKY/WX    TMP DP  RH WIND       PRES   REMARKS
ELKHART        SUNNY     72  72 100 CALM      30.12R
GOSHEN         SUNNY     73  70  90 S5        30.11S FOG
PERU/GRISSOM   SUNNY     74  69  85 SW6       30.11S
SOUTH BEND     SUNNY     72  69  90 S6        30.11R

$$

INZ006>009-017-018-025>027-011400-
NORTHEAST INDIANA

CITY           SKY/WX    TMP DP  RH WIND       PRES   REMARKS
ANGOLA *+      SUNNY     73  66  78 SW3       30.12S
FORT WAYNE     SUNNY     73  69  87 SW5       30.13S

$$

INZ028-029-035-036-043>045-051>053-011400-
WEST CENTRAL INDIANA

CITY           SKY/WX    TMP DP  RH WIND       PRES   REMARKS
CRAWFORDSVL +  SUNNY     70  68  91 SW5       30.13S
GREENCASTLE +  SUNNY     70  64  83 CALM      30.14S
LAFAYETTE      MOSUNNY   72  68  87 S3        30.11R
TERRE HAUTE    MOSUNNY   71  69  93 CALM      30.13S

$$

INZ030>032-037>040-046>048-054>057-064-065-011400-
CENTRAL INDIANA

CITY           SKY/WX    TMP DP  RH WIND       PRES   REMARKS
ANDERSON       SUNNY     72  68  88 S6        30.16
COLUMBUS       SUNNY     70  66  88 CALM      30.15S
GREENWOOD *+   MOSUNNY   73  66  78 CALM      30.15S
INDIANAPOLIS   MOSUNNY   73  67  81 S5        30.13S
-EAGLE CREEK   SUNNY     72  68  87 CALM      30.13S
KOKOMO *+      PTSUNNY   72  61  68 S5        30.13S
MT COMFORT *+  MOSUNNY   72 N/A N/A S3        30.14S
SHELBYVILLE    SUNNY     74  69  85 CALM      30.14S HAZE

$$

INZ033-034-041-042-049-050-058-059-011400-
EAST CENTRAL INDIANA

CITY           SKY/WX    TMP DP  RH WIND       PRES   REMARKS
MUNCIE         SUNNY     72  68  87 SW5       30.14S

$$

INZ060-061-067>069-081>083-085>088-011400-
SOUTHWEST INDIANA

CITY           SKY/WX    TMP DP  RH WIND       PRES   REMARKS
EVANSVILLE     SUNNY     73  68  84 CALM      30.14S
HUNTINGBURG *+ SUNNY     70  66  88 CALM      30.15R

$$

INZ062-063-066-070>080-084-089>092-011400-
SOUTH CENTRAL AND SOUTHEAST INDIANA

CITY           SKY/WX    TMP DP  RH WIND       PRES   REMARKS
BLOOMINGTON    SUNNY     72  68  87 CALM      30.15R
MADISON *+     SUNNY     70  68  94 CALM      30.18S
SEYMOUR +      SUNNY     70  70 100 CALM      30.14S FOG

$$



USA.gov is the U.S. government's official web portal to all federal, state and local government web resources and services.